Simultaneous Nadir Overpasses (SNOs) Predictions

Prediction of SNOs between LANDSAT-8 and NOAA-19 Satellite Orbit:

Table of predicted SNOs for the next 14.0 days since TLE Epoch: 3/29/2019
Index Date (LANDSAT-8) Time (LANDSAT-8) Lat,Lon (LANDSAT-8) SZA (LANDSAT-8 ) Date (NOAA-19) Time (NOAA-19) Lat,Lon (NOAA-19) SZA (NOAA-19 ) Distance(km) Time Diff (sec)
1 03/30/2019 08:52:33 78.60, 65.11 75.34 03/30/2019 08:52:02 78.61, 65.18 75.35 1.94 31
2 03/30/2019 09:42:01 -78.57,-127.44 104.72 03/30/2019 09:42:59 -78.57,-127.29 104.69 3.45 58
3 04/01/2019 14:26:17 -78.61, 161.71 105.51 04/01/2019 14:25:28 -78.64, 161.69 105.49 3.80 49
4 04/01/2019 15:15:43 78.60, -30.69 74.48 04/01/2019 15:16:30 78.60, -30.77 74.48 1.91 47
5 04/03/2019 19:59:59 78.64,-101.55 73.69 04/03/2019 19:58:58 78.62,-101.45 73.67 3.16 61
6 04/03/2019 20:49:27 -78.61, 65.92 106.36 04/03/2019 20:49:55 -78.62, 65.85 106.35 1.58 28
7 04/06/2019 01:33:37 -78.90, -3.57 106.82 04/06/2019 01:32:31 -78.92, -6.95 107.01 72.20 66
8 04/06/2019 02:23:09 78.64, 162.63 72.84 04/06/2019 02:23:26 78.61, 162.57 72.82 3.04 17
9 04/08/2019 07:56:53 -78.65,-100.76 107.98 04/08/2019 07:56:50 -78.63,-100.80 108.00 2.09 3
10 04/10/2019 13:30:35 78.66, -4.09 71.23 04/10/2019 13:30:22 78.64, -4.15 71.19 3.40 13




NCC Satellite Simultaneous Nadir Overpasses (SNOs) Prediction Service
